Date,TemperatureHighF,TemperatureAvgF,TemperatureLowF,DewpointHighF,DewpointAvgF,DewpointLowF,HumidityHigh,HumidityAvg,HumidityLow,PressureMaxIn,PressureMinIn,WindSpeedMaxMPH,WindSpeedAvgMPH,GustSpeedMaxMPH,PrecipitationSumIn
2013-1-1,75,60,48,61,54,46,92,81,59,30.24,30.05,9,1,9,0.00
2013-1-2,78,65,52,67,59,50,91,83,66,30.08,29.98,7,1,7,0.00
2013-1-3,70,59,56,64,56,52,91,89,82,30.20,30.05,10,2,10,0.06
2013-1-4,58,55,52,55,52,49,91,91,90,30.30,30.18,8,2,8,0.20
2013-1-5,71,60,48,62,54,45,91,83,72,30.33,30.20,9,2,9,0.00
2013-1-6,78,70,59,68,64,55,89,80,70,30.22,30.07,5,2,5,0.01
2013-1-7,67,61,51,59,55,48,90,83,73,30.25,30.16,9,3,9,0.02
2013-1-8,78,68,60,70,64,57,92,87,74,30.25,30.15,5,1,5,0.00
2013-1-9,79,71,66,72,67,63,92,87,77,30.31,30.21,5,1,5,0.00
2013-1-10,80,71,61,70,65,58,92,80,61,30.33,30.24,6,1,6,0.00
2013-1-11,80,67,57,69,61,54,92,83,62,30.28,30.16,6,1,6,0.00
2013-1-12,80,66,55,68,61,53,92,83,57,30.22,30.10,5,0,5,0.00
2013-1-13,79,67,55,67,61,52,92,82,59,30.18,30.08,5,1,5,0.01
2013-1-14,79,67,57,66,61,54,92,82,60,30.20,30.12,5,1,5,0.00
2013-1-15,79,70,60,68,64,57,91,82,62,30.16,30.06,4,1,4,0.00
2013-1-16,79,67,58,66,60,55,91,79,53,30.12,30.01,5,1,5,0.00
2013-1-17,75,61,50,68,55,42,91,81,70,30.13,29.98,14,4,14,0.03
2013-1-18,65,52,40,55,45,34,86,77,69,30.31,30.13,12,4,12,0.00
2013-1-19,71,61,53,61,55,49,88,81,69,30.31,30.16,10,3,10,0.00
2013-1-20,71,62,56,62,56,52,89,83,71,30.20,30.06,7,2,7,0.00
2013-1-21,73,63,57,60,56,53,87,78,63,30.12,30.01,7,1,7,0.00
2013-1-22,60,54,43,53,43,37,87,67,43,30.30,30.08,12,2,12,0.00
2013-1-23,65,51,39,40,36,33,88,61,32,30.39,30.29,7,1,7,0.00
2013-1-24,71,59,39,51,48,36,91,68,48,30.34,30.23,8,1,8,0.00
2013-1-25,73,58,46,56,49,43,92,76,48,30.33,30.18,5,1,5,0.00
2013-1-26,73,57,42,58,50,40,92,80,55,30.29,30.17,6,1,6,0.00
2013-1-27,76,61,47,62,54,44,91,81,58,30.33,30.24,7,1,7,0.00
2013-1-28,77,68,58,65,62,55,90,81,65,30.35,30.24,5,1,5,0.00
2013-1-29,81,70,60,68,63,57,92,80,57,30.27,30.11,7,1,7,0.00
2013-1-30,82,75,64,66,64,61,90,71,56,30.06,29.88,12,6,12,0.00
2013-1-31,71,55,42,66,41,28,89,62,30,30.25,29.88,8,2,8,0.02
2013-2-1,67,51,40,38,32,25,80,52,23,30.38,30.25,9,2,9,0.00
2013-2-2,69,53,40,47,40,35,86,64,35,30.33,30.16,6,1,6,0.00
2013-2-3,67,54,40,52,42,37,89,67,38,30.20,30.07,12,2,12,0.00
2013-2-4,68,52,38,45,38,34,90,64,30,30.16,30.06,5,1,5,0.00
2013-2-5,74,57,38,53,46,35,88,67,46,30.12,30.01,6,1,6,0.00
2013-2-6,74,65,55,64,58,51,87,79,63,30.14,30.04,5,1,5,0.00
2013-2-7,79,69,58,64,61,55,91,76,57,30.10,29.87,10,2,10,0.00
2013-2-8,76,67,57,63,59,54,89,76,51,30.09,29.88,9,2,9,0.00
2013-2-9,71,59,49,57,52,46,90,79,58,30.23,30.08,9,2,9,0.00
2013-2-10,77,63,48,61,54,45,91,76,53,30.29,30.18,9,2,9,0.00
2013-2-11,80,68,55,64,60,52,90,74,53,30.23,30.08,9,2,9,0.00
2013-2-12,82,70,57,68,62,54,91,77,55,30.11,29.93,9,2,9,0.00
2013-2-13,83,70,61,70,65,58,90,84,62,29.98,29.83,12,3,12,0.64
2013-2-14,65,60,54,59,57,52,91,88,77,30.07,29.93,7,1,7,0.21
2013-2-15,68,56,51,57,51,48,91,84,61,30.10,29.97,6,1,6,0.09
2013-2-16,66,54,46,52,43,28,91,67,40,30.16,29.92,15,3,15,0.00
2013-2-17,52,42,31,28,20,11,83,45,20,30.37,30.16,12,2,12,0.00
2013-2-18,66,46,27,46,35,23,87,67,42,30.40,30.24,7,1,7,0.00
2013-2-19,77,60,42,57,50,39,90,73,47,30.25,30.06,9,2,9,0.00
2013-2-20,72,61,52,60,53,48,90,76,60,30.16,30.03,9,1,9,0.00
2013-2-21,81,65,50,66,57,47,89,77,51,30.14,30.00,7,1,7,0.00
2013-2-22,84,72,60,70,64,57,91,77,48,30.10,29.99,9,2,9,0.00
2013-2-23,86,75,69,69,67,63,89,76,49,30.01,29.87,9,3,9,0.00
2013-2-24,72,69,65,69,65,62,90,89,87,29.97,29.87,6,1,6,0.68
2013-2-25,83,71,62,71,64,59,92,80,55,29.94,29.77,7,1,7,0.00
2013-2-26,74,70,63,70,65,60,90,85,70,29.87,29.73,9,3,9,0.39
2013-2-27,72,64,56,60,54,49,89,72,50,29.99,29.87,8,2,8,0.02
2013-2-28,71,59,46,54,48,43,90,70,41,30.01,29.89,14,2,14,0.18
2013-3-1,64,55,48,47,40,32,88,59,33,30.01,29.92,12,2,12,0.00
2013-3-2,58,50,41,37,33,26,72,52,31,30.05,29.96,16,4,16,0.00
2013-3-3,51,43,37,32,30,28,78,62,46,30.17,30.02,17,3,17,0.00
2013-3-4,64,46,29,38,29,22,89,58,24,30.25,30.13,9,1,9,0.00
2013-3-5,75,57,38,57,44,34,90,64,37,30.21,30.01,8,2,8,0.00
2013-3-6,63,54,46,59,42,31,88,66,48,30.16,29.92,11,3,11,0.00
2013-3-7,64,51,40,43,38,30,86,61,42,30.24,30.14,7,2,7,0.00
2013-3-8,72,54,37,47,40,34,90,66,25,30.25,30.13,10,1,10,0.00
2013-3-9,74,58,42,52,47,39,90,70,40,30.25,30.16,8,2,8,0.00
2013-3-10,67,55,49,56,50,46,91,86,68,30.20,30.12,9,0,2,0.00
2013-3-11,77,64,50,61,55,47,91,74,50,30.14,29.92,8,2,8,0.00
2013-3-12,71,66,57,65,61,54,89,84,77,30.04,29.86,9,3,9,0.01
2013-3-13,57,51,48,54,45,42,89,79,73,30.15,30.03,5,1,5,0.00
2013-3-18,73,71,69,65,64,64,84,80,74,29.94,29.91,7,4,7,0.00
2013-3-19,84,72,62,65,61,58,90,72,43,30.04,29.90,7,2,7,0.00
2013-3-20,75,65,57,66,60,54,90,85,68,30.00,29.80,13,1,13,0.12
2013-3-21,69,56,45,54,42,29,91,65,23,29.99,29.88,8,2,8,0.00
2013-3-22,76,57,39,58,47,36,90,73,38,30.05,29.92,6,1,6,0.05
2013-3-23,84,71,60,73,65,57,92,82,61,30.00,29.77,8,2,8,0.03
2013-3-24,80,73,67,72,68,63,90,84,74,29.85,29.62,14,3,14,0.00
2013-3-25,71,63,55,63,45,27,89,57,21,30.04,29.71,10,3,10,0.00
2013-3-26,59,51,44,39,30,22,71,45,25,30.26,30.04,16,3,16,0.00
2013-3-27,62,48,36,38,32,27,80,56,28,30.33,30.22,7,2,7,0.00
2013-3-28,72,53,35,47,35,28,89,59,22,30.32,30.19,7,1,7,0.00
2013-3-29,74,56,39,47,38,33,90,58,23,30.35,30.20,8,1,8,0.00
2013-3-30,77,60,42,54,46,39,90,63,37,30.28,30.12,7,1,7,0.00
2013-3-31,80,67,55,57,53,49,87,64,35,30.19,30.00,12,2,12,0.00
2013-4-1,82,70,58,66,60,54,89,74,49,30.03,29.93,12,2,12,0.00
2013-4-2,82,69,59,62,56,49,92,66,36,30.10,30.00,8,1,8,0.00
2013-4-3,82,67,56,67,60,52,90,79,57,30.10,29.97,8,1,8,0.12
2013-4-4,72,69,65,67,65,62,91,88,81,30.03,29.84,10,2,10,0.02
2013-4-5,75,67,56,66,61,53,89,83,63,30.01,29.81,10,3,10,0.00
2013-4-6,74,63,52,59,55,49,89,77,57,30.16,30.00,10,3,10,0.00
2013-4-7,79,66,56,62,57,53,91,75,49,30.18,30.08,7,1,7,0.00
2013-4-8,83,69,55,65,59,52,91,74,48,30.16,30.06,7,1,7,0.00
2013-4-9,84,70,58,67,60,55,91,74,52,30.19,30.09,8,1,8,0.00
2013-4-10,84,70,56,69,62,53,91,76,50,30.15,29.99,7,1,7,0.00
2013-4-11,89,78,72,73,70,67,89,77,49,30.01,29.82,10,3,10,0.03
2013-4-12,83,77,74,73,71,69,87,81,68,29.90,29.81,12,4,12,0.00
2013-4-13,88,74,65,70,65,55,90,74,45,30.00,29.88,5,1,5,0.00
2013-4-14,87,71,62,74,65,57,90,83,62,30.00,29.83,8,1,8,0.11
2013-4-15,88,74,64,69,64,60,90,74,48,30.09,29.89,7,1,7,0.01
2013-4-16,86,74,65,72,66,62,92,79,61,30.16,30.06,9,2,9,0.00
2013-4-17,84,72,63,69,64,60,92,79,53,30.17,30.06,9,2,9,0.00
2013-4-18,88,75,62,71,65,59,91,74,47,30.07,29.95,6,1,6,0.00
2013-4-19,84,76,73,72,70,69,88,83,66,30.02,29.98,10,2,10,0.00
2013-5-1,76,71,69,68,67,65,89,87,77,30.02,29.99,7,3,7,0.00
2013-5-2,71,68,65,68,66,62,92,91,89,29.99,29.84,12,2,12,2.58
2013-5-3,79,70,67,71,66,64,93,88,73,29.86,29.74,21,5,21,3.88
2013-5-4,83,73,68,72,68,64,91,84,68,29.80,29.69,13,3,13,0.10
2013-5-5,79,69,58,67,55,46,89,65,35,29.95,29.77,17,6,17,0.00
2013-5-6,76,66,57,59,55,51,90,69,44,30.02,29.91,16,5,16,0.00
2013-5-7,79,65,48,60,55,46,92,73,49,30.07,29.98,18,5,18,0.00
2013-5-8,83,68,53,65,58,51,93,73,44,30.15,30.04,14,3,14,0.00
2013-5-9,87,71,54,67,60,52,93,72,43,30.17,30.08,10,2,10,0.00
2013-5-10,91,75,58,71,64,55,92,73,44,30.15,30.00,14,3,14,0.00
2013-5-11,90,76,65,74,68,62,91,80,52,30.07,29.97,20,4,20,0.07
2013-5-12,89,76,65,71,67,62,91,74,50,30.05,29.95,18,4,18,0.00
2013-5-13,84,72,57,66,58,47,89,64,33,30.16,30.01,14,3,14,0.00
2013-5-14,84,67,46,56,50,44,91,61,29,30.24,30.14,12,2,12,0.00
2013-5-15,88,70,52,63,56,49,92,65,36,30.25,30.10,12,2,12,0.00
2013-5-16,88,72,56,66,60,53,92,70,37,30.16,30.03,12,2,12,0.00
2013-5-17,90,75,58,70,64,56,92,72,43,30.13,30.05,13,3,13,0.00
2013-5-18,92,78,62,73,67,60,92,73,42,30.14,30.01,13,3,13,0.00
2013-5-19,88,76,67,75,70,64,91,80,61,30.11,30.00,17,4,17,0.71
2013-5-20,90,76,69,73,68,60,91,78,51,30.11,30.00,12,2,12,0.00
2013-5-21,82,73,67,74,68,65,93,86,73,30.06,29.95,12,2,12,0.12
2013-5-22,87,75,66,74,69,63,93,83,60,30.00,29.92,12,2,12,0.00
2013-5-23,93,77,66,75,69,63,93,78,50,30.01,29.91,12,2,12,0.00
2013-5-24,93,80,66,74,66,60,93,68,35,30.11,29.98,13,3,13,0.00
2013-5-25,88,75,63,69,63,58,92,69,42,30.22,30.10,12,3,12,0.00
2013-5-26,88,71,53,64,58,50,92,67,37,30.24,30.16,12,2,12,0.00
2013-5-27,87,73,57,67,61,54,91,70,42,30.21,30.12,14,3,14,0.00
2013-5-28,89,76,63,72,67,59,90,75,55,30.18,30.08,18,4,18,0.00
2013-5-29,87,78,69,74,70,66,92,79,61,30.15,30.08,18,4,18,0.00
2013-5-30,85,77,70,75,71,67,91,83,68,30.15,30.06,20,5,20,0.12
2013-5-31,86,77,68,75,70,65,90,81,64,30.14,30.05,16,4,16,0.00
2013-6-1,88,78,70,76,72,67,91,82,66,30.10,30.00,16,4,16,0.03
2013-6-2,94,79,72,78,73,69,92,83,54,30.04,29.88,12,2,12,0.60
2013-6-3,91,79,71,76,73,69,92,81,56,30.02,29.88,13,3,13,0.05
2013-6-4,89,77,71,76,72,68,92,84,60,30.06,29.95,16,3,16,0.21
2013-6-5,86,74,70,77,70,68,92,88,66,30.04,29.93,15,2,15,0.50
2013-6-6,81,75,72,76,71,69,92,89,75,29.93,29.65,29,7,29,1.75
2013-6-7,90,80,72,76,72,68,90,78,59,29.96,29.76,14,6,14,0.00
2013-6-8,91,76,71,78,71,67,91,84,62,30.11,29.96,16,2,16,2.09
2013-6-9,94,78,70,82,73,67,93,86,60,30.13,30.04,10,2,10,0.25
2013-6-10,94,79,71,77,72,68,93,81,51,30.11,30.01,23,2,23,0.02
2013-6-11,92,77,70,79,72,67,92,86,61,30.10,30.03,15,2,15,1.32
2013-6-12,95,82,70,78,72,68,94,75,43,30.10,29.99,10,2,10,0.00
2013-6-13,94,86,72,78,74,70,92,69,54,30.04,29.89,13,5,13,0.00
2013-6-14,91,82,74,76,73,70,90,76,52,29.95,29.84,17,5,17,0.00
2013-6-15,90,81,74,78,74,70,93,80,64,30.09,29.92,13,4,13,0.61
2013-6-16,90,81,75,79,74,71,89,81,64,30.11,30.04,13,3,13,0.05
2013-6-17,94,82,74,80,75,71,92,81,53,30.09,29.98,14,3,14,0.66
2013-6-18,92,82,73,78,74,70,91,78,61,30.07,29.95,13,3,13,0.00
2013-6-19,91,81,73,78,74,70,92,79,60,30.05,29.96,12,3,12,0.00
2013-6-20,97,80,71,77,72,68,92,78,46,30.10,30.01,18,2,18,0.19
2013-6-21,93,76,69,77,70,67,93,84,55,30.15,30.05,17,2,17,2.65
2013-6-22,88,76,69,78,72,67,94,87,68,30.14,30.08,13,2,13,0.47
2013-6-23,92,79,70,78,73,67,93,82,58,30.17,30.09,16,2,16,0.00
2013-6-24,93,81,71,78,73,69,93,80,54,30.21,30.09,14,2,14,0.22
2013-6-25,94,81,71,77,73,68,93,77,50,30.18,30.05,13,2,13,0.00
2013-6-26,95,80,72,78,73,69,93,81,51,30.10,30.02,12,2,12,0.02
2013-6-27,92,79,69,78,73,66,93,82,60,30.06,29.94,13,2,13,0.25
2013-6-28,90,80,74,78,74,71,91,82,62,29.98,29.85,13,3,13,0.01
2013-6-29,89,80,74,78,74,71,91,83,62,29.88,29.79,20,4,20,0.00
2013-6-30,88,78,74,80,73,71,90,86,71,29.89,29.82,16,4,16,0.16
2013-7-1,84,76,72,76,72,69,91,86,75,30.05,29.87,15,5,15,0.17
2013-7-2,86,76,72,80,73,69,92,88,77,30.11,30.00,12,3,12,0.19
2013-7-3,90,77,72,78,73,69,93,87,66,30.15,30.08,12,3,12,0.57
2013-7-4,91,78,71,77,72,68,93,84,59,30.18,30.09,18,4,18,0.80
2013-7-5,89,79,71,78,73,68,93,83,62,30.18,30.08,18,4,18,0.39
2013-7-6,91,81,72,77,73,69,93,79,57,30.15,30.06,16,4,16,0.00
2013-7-7,91,81,73,77,74,70,93,79,58,30.16,30.06,13,4,13,0.01
2013-7-8,93,82,72,78,74,69,93,78,56,30.18,30.09,12,3,12,0.00
2013-7-9,93,81,69,76,72,67,94,75,50,30.19,30.08,15,2,15,0.00
2013-7-10,93,80,70,78,72,67,93,79,53,30.11,29.98,15,2,15,0.03
2013-7-11,94,80,71,76,72,68,93,80,52,30.05,29.91,12,3,12,0.01
2013-7-12,88,79,71,78,73,68,92,83,66,29.96,29.90,9,2,9,0.00
2013-7-13,92,77,71,77,72,68,93,84,55,30.02,29.92,18,2,18,1.57
2013-7-14,91,76,70,78,72,68,93,87,63,30.12,29.99,12,2,12,0.91
2013-7-15,86,78,68,78,72,66,94,85,71,30.15,30.04,9,2,9,0.04
2013-7-16,91,80,73,77,73,70,91,81,60,30.18,30.12,21,3,21,0.00
2013-7-17,91,80,73,78,73,70,92,82,58,30.19,30.10,12,3,12,0.01
2013-7-18,88,78,72,77,72,70,93,83,60,30.14,30.06,20,3,20,0.00
2013-7-19,91,77,71,77,72,68,92,84,62,30.15,30.05,17,2,17,0.79
2013-7-20,90,77,73,79,73,70,92,86,63,30.12,30.02,14,2,14,0.77
2013-7-21,92,78,72,81,74,70,93,85,63,30.14,30.03,14,2,14,0.00
2013-7-22,90,78,73,80,73,70,93,87,68,30.14,30.07,17,2,17,0.25
2013-7-23,84,76,72,78,72,70,93,89,81,30.10,29.97,17,3,17,0.28
2013-7-24,86,78,72,78,74,69,92,88,75,30.01,29.88,15,4,15,1.23
2013-7-25,85,78,74,78,74,71,91,86,76,29.99,29.87,20,4,20,0.22
2013-7-26,95,81,72,79,74,70,94,81,56,30.02,29.95,12,2,12,0.00
2013-7-27,94,81,72,80,74,70,93,82,57,30.02,29.89,12,2,12,0.00
2013-7-28,90,78,70,79,73,68,93,85,64,30.08,29.95,12,2,12,0.28
2013-7-29,91,79,70,79,74,68,94,85,65,30.15,30.04,16,1,16,0.03
2013-7-30,95,86,74,79,76,71,93,74,51,30.19,30.08,13,2,13,0.01
2013-7-31,94,80,71,79,74,68,93,83,55,30.15,30.02,19,2,19,2.12
2013-8-1,92,78,71,79,73,69,93,84,56,30.08,29.97,12,2,12,0.01
2013-8-2,94,81,71,78,73,68,93,78,53,30.05,29.96,9,1,9,0.00
2013-8-3,92,80,74,79,74,71,92,83,61,30.10,30.01,18,3,18,0.05
2013-8-4,89,80,74,80,75,71,93,87,72,30.10,29.99,14,2,14,0.14
2013-8-5,92,81,74,82,75,71,94,84,60,30.03,29.91,17,3,17,0.27
2013-8-6,96,80,73,81,75,70,93,84,58,30.00,29.91,17,2,17,1.31
2013-8-7,94,81,75,80,76,72,93,84,60,30.00,29.93,9,2,9,0.00
2013-8-8,94,82,75,80,75,72,92,80,55,30.06,29.96,13,3,13,0.02
2013-8-9,94,81,73,81,75,70,93,83,58,30.08,30.00,12,2,12,0.06
2013-8-10,95,82,71,81,74,68,93,79,57,30.15,30.05,10,2,10,0.01
2013-8-11,96,83,72,79,74,69,93,77,51,30.17,30.06,8,2,8,0.00
2013-8-12,95,83,72,80,75,69,92,78,58,30.14,30.00,9,2,9,0.00
2013-8-13,95,83,73,79,74,70,91,76,47,30.06,29.92,8,2,8,0.00
2013-8-14,97,81,73,80,74,70,91,81,51,30.02,29.89,18,2,18,0.13
2013-8-15,94,82,73,80,74,70,92,78,52,30.05,29.92,17,2,17,0.01
2013-8-16,92,81,74,79,74,71,90,80,55,30.08,29.97,15,2,15,0.02
2013-8-17,94,80,74,80,74,70,92,84,62,30.12,29.98,18,2,18,1.28
2013-8-18,92,80,73,79,75,71,94,84,61,30.12,30.03,15,3,15,0.02
2013-8-19,90,80,72,80,74,70,93,85,69,30.11,29.99,12,2,12,0.05
2013-8-20,94,82,73,79,75,70,93,80,54,30.12,30.01,13,2,13,0.01
2013-8-21,91,79,74,80,74,70,92,87,68,30.14,30.07,14,2,14,0.30
2013-8-22,92,78,74,82,74,71,92,87,68,30.11,30.02,13,2,13,0.06
2013-8-23,93,77,72,80,74,69,93,88,64,30.06,29.99,13,2,13,0.93
2013-8-24,93,77,72,80,73,70,94,88,64,30.15,30.02,10,1,10,0.64
2013-8-25,87,78,72,78,74,70,93,86,72,30.18,30.10,9,2,9,0.01
2013-8-26,89,79,73,78,73,70,91,84,66,30.17,30.05,14,3,14,0.43
2013-8-27,90,79,71,77,72,68,93,79,58,30.10,30.01,12,2,12,0.27
2013-8-28,92,79,66,75,70,64,93,76,52,30.08,29.99,10,2,10,0.00
2013-8-29,95,81,69,76,72,66,92,75,47,30.05,29.92,9,2,9,0.00
2013-8-30,95,82,72,78,73,69,92,76,49,30.00,29.88,16,2,16,0.00
2013-8-31,91,80,73,79,73,69,92,81,59,29.99,29.88,16,3,16,0.00
2013-9-1,93,80,70,78,72,68,92,80,56,30.01,29.89,16,2,16,0.44
2013-9-2,92,80,71,78,73,69,92,80,55,30.03,29.92,17,2,17,0.01
2013-9-3,92,81,72,79,74,70,92,80,59,30.03,29.92,17,2,17,0.06
2013-9-4,94,80,72,80,74,69,92,82,59,30.10,29.99,9,2,9,0.27
2013-9-5,95,81,70,79,73,67,93,78,51,30.12,30.01,8,1,8,0.00
2013-9-6,92,77,72,80,73,68,92,86,62,30.07,29.99,14,2,14,0.49
2013-9-7,91,78,71,78,72,68,93,83,59,30.04,29.95,8,2,8,0.03
2013-9-8,91,79,69,76,72,66,93,79,58,30.00,29.90,12,2,12,0.01
2013-9-9,92,78,66,76,70,64,93,77,49,30.06,29.96,12,2,12,0.00
2013-9-10,92,79,70,76,71,66,90,77,49,30.12,30.02,15,3,15,0.00
2013-9-11,91,80,71,77,72,68,90,78,54,30.11,30.02,13,3,13,0.00
2013-9-12,92,79,71,77,72,68,93,81,55,30.05,29.91,14,2,14,0.02
2013-9-13,93,79,69,77,72,66,93,79,53,29.93,29.80,10,1,10,0.00
2013-9-14,94,81,71,78,73,68,92,78,55,30.00,29.84,12,1,12,0.00
2013-9-15,93,81,73,80,74,70,92,81,56,30.09,29.99,17,3,17,0.01
2013-9-16,93,81,71,77,73,68,92,77,54,30.10,29.99,12,2,12,0.00
2013-9-17,90,80,70,80,72,67,92,80,61,30.09,29.98,13,3,13,0.02
2013-9-18,90,79,73,77,72,69,89,81,61,30.07,30.00,15,4,15,0.02
2013-9-19,91,78,71,77,72,68,90,81,58,30.08,30.00,16,3,16,0.35
2013-9-20,89,76,66,74,69,63,92,79,58,30.06,29.93,10,2,10,0.01
2013-9-21,90,77,64,74,69,62,93,77,50,29.97,29.77,7,1,7,0.00
2013-9-22,88,77,72,77,72,68,91,85,68,29.87,29.77,13,2,13,0.07
2013-9-23,84,76,73,78,73,70,92,90,80,29.98,29.85,9,2,9,0.57
2013-9-24,83,76,71,76,73,68,92,88,79,29.98,29.84,12,3,12,0.59
2013-9-25,82,77,73,74,72,69,89,84,76,29.86,29.78,15,5,15,0.00
2013-9-26,90,80,71,78,73,67,92,80,50,29.89,29.78,13,4,13,0.00
2013-9-27,80,73,68,74,69,65,91,87,80,29.99,29.87,12,3,12,0.20
2013-9-28,82,75,70,75,70,67,91,85,75,30.05,29.94,9,3,9,0.04
2013-9-29,88,75,66,74,68,63,92,81,57,30.02,29.93,10,1,10,0.00
2013-9-30,89,76,66,74,69,63,92,81,56,30.04,29.93,8,0,8,0.00
2013-10-1,80,73,70,72,68,66,89,86,72,30.09,30.00,8,0,3,0.00
2013-10-2,90,76,65,73,68,62,91,77,56,30.09,30.02,8,0,8,0.00
2013-10-3,91,76,64,76,69,61,92,79,54,30.10,30.00,9,0,9,0.00
2013-10-4,92,78,67,75,70,65,92,79,51,30.11,30.01,5,0,5,0.00
2013-10-5,91,77,65,76,70,63,93,80,59,30.08,29.98,10,0,10,0.00
2013-10-6,90,77,67,76,70,65,92,82,56,30.01,29.87,17,0,17,0.07
2013-10-7,82,74,69,76,71,66,93,89,81,29.90,29.75,8,1,8,0.14
2013-10-8,86,76,72,77,72,69,92,87,72,29.98,29.78,10,1,10,0.14
2013-10-9,78,71,66,70,66,63,89,86,74,30.07,29.96,12,4,12,0.00
2013-10-10,86,72,59,71,64,57,93,79,50,30.09,29.99,12,1,12,0.00
2013-10-11,86,71,58,72,64,56,94,79,52,30.08,29.95,9,0,8,0.00
2013-10-12,87,72,58,70,62,56,93,75,44,30.07,29.98,6,0,6,0.00
2013-10-13,87,73,59,70,63,57,92,73,45,30.11,30.01,6,0,6,0.00
2013-10-14,86,74,63,70,67,60,91,80,53,30.07,29.95,10,1,10,0.00
2013-10-15,79,72,66,72,68,63,90,86,78,30.02,29.92,7,1,7,0.00
2013-10-16,88,76,70,74,69,67,91,81,55,30.00,29.91,1,0,1,0.00
2013-10-17,88,76,66,75,69,64,93,80,53,30.01,29.90,2,0,2,0.01
2013-10-18,90,77,65,75,69,63,93,79,54,30.01,29.90,6,0,6,0.00
2013-10-19,90,78,66,76,70,63,92,80,57,29.97,29.87,9,0,9,0.00
2013-10-20,86,76,70,75,71,66,92,84,68,30.00,29.88,6,1,6,0.00
2013-10-21,92,78,69,79,72,66,92,83,58,30.02,29.91,6,1,6,0.02
2013-10-22,89,78,71,78,72,68,93,82,59,29.97,29.82,13,2,13,0.00
2013-10-23,82,72,59,69,62,53,90,72,39,30.04,29.82,12,1,12,0.02
2013-10-24,73,62,53,59,52,49,89,72,55,30.19,30.03,7,1,7,0.00
2013-10-25,81,63,48,58,53,46,93,72,43,30.28,30.17,7,0,7,0.00
2013-10-26,80,64,48,58,53,45,91,71,39,30.24,30.12,3,0,3,0.00
2013-10-27,79,62,48,60,52,45,93,73,41,30.18,30.08,6,0,6,0.00
2013-10-28,84,64,46,65,56,43,92,77,47,30.23,30.13,5,0,5,0.00
2013-10-29,84,70,57,68,63,55,93,79,56,30.26,30.17,13,2,13,0.00
2013-10-30,85,71,60,70,64,58,93,80,56,30.26,30.13,8,0,8,0.00
2013-10-31,85,72,59,71,65,56,92,79,54,30.17,30.00,12,1,12,0.01
2013-11-1,88,76,66,72,68,64,92,78,49,30.03,29.87,16,3,16,0.00
2013-11-2,73,68,56,70,64,54,92,89,85,30.00,29.81,14,1,14,0.61
2013-11-3,75,63,52,60,53,48,94,73,39,30.16,29.99,13,2,13,0.01
2013-11-4,80,68,58,65,59,54,89,76,48,30.22,30.14,16,3,16,0.01
2013-11-5,76,68,64,68,64,61,90,88,76,30.19,30.14,10,1,10,0.03
2013-11-6,83,72,63,71,66,60,91,82,61,30.16,30.07,12,1,12,0.01
2013-11-7,79,70,62,70,66,59,93,87,72,30.08,29.98,2,0,2,0.01
2013-11-8,75,65,60,65,60,52,93,83,70,30.17,30.02,13,3,13,0.00
2013-11-9,80,68,60,67,61,56,88,78,60,30.22,30.14,10,1,10,0.00
2013-11-10,82,72,64,69,65,61,90,79,59,30.19,30.11,4,1,4,0.00
2013-11-11,82,70,61,70,63,58,90,81,62,30.20,30.09,7,1,7,0.00
2013-11-12,81,68,59,70,63,57,93,84,66,30.15,30.03,3,0,3,0.02
2013-11-13,64,58,52,58,50,46,85,75,60,30.37,30.11,20,5,20,0.00
2013-11-14,75,60,46,61,52,43,91,78,55,30.35,30.23,16,1,13,0.00
2013-11-15,71,63,52,64,60,50,91,87,77,30.24,30.11,5,0,5,0.15
2013-11-16,77,68,64,71,65,61,92,90,81,30.17,30.08,2,0,2,0.45
2013-11-17,85,74,67,73,69,64,93,84,63,30.12,30.00,9,0,9,0.02
2013-11-18,82,73,65,73,68,63,92,84,70,30.05,29.93,10,0,10,0.02
2013-11-19,76,69,63,67,62,54,92,79,59,30.02,29.90,7,1,7,0.00
2013-11-20,80,70,64,72,66,60,90,85,72,30.15,30.00,12,1,12,0.00
2013-11-21,79,71,67,72,67,64,91,88,78,30.23,30.13,9,1,9,0.00
2013-11-22,80,72,63,71,66,60,91,84,66,30.24,30.13,12,1,12,0.02
2013-11-23,84,71,59,71,64,57,93,80,54,30.15,30.01,5,0,5,0.00
2013-11-24,69,63,58,65,56,50,89,80,72,30.29,30.06,16,5,16,0.00
2013-11-25,76,66,59,61,57,52,87,72,53,30.30,30.12,16,3,16,0.00
2013-11-26,82,72,61,73,67,57,91,85,71,30.12,29.75,18,4,18,0.21
2013-11-27,73,60,39,70,54,35,91,82,67,30.25,29.71,27,9,27,0.50
2013-11-28,64,48,32,52,41,29,88,78,61,30.39,30.24,9,3,9,0.00
2013-11-29,71,58,48,60,52,45,90,82,64,30.42,30.31,12,4,12,0.00
2013-11-30,77,64,55,66,58,52,91,84,60,30.35,30.23,12,4,12,0.00
2013-12-1,75,64,59,66,60,56,92,87,71,30.23,30.01,8,2,8,0.00
2013-12-2,72,61,50,62,56,48,93,85,58,30.00,29.83,12,2,12,0.00
2013-12-3,78,62,46,63,55,44,93,81,56,30.02,29.90,8,1,8,0.00
2013-12-4,81,66,55,70,60,52,93,83,57,30.11,30.00,9,1,9,0.01
2013-12-5,83,68,56,70,62,54,93,82,59,30.20,30.10,9,1,9,0.00
2013-12-6,85,70,59,72,64,57,93,82,59,30.21,30.10,12,2,12,0.01
2013-12-7,85,70,60,70,64,57,93,81,55,30.27,30.15,12,1,12,0.00
2013-12-8,84,69,57,72,63,55,93,84,57,30.27,30.12,12,2,12,0.00
2013-12-9,84,69,58,72,64,55,93,83,58,30.22,30.10,12,2,12,0.01
2013-12-10,84,71,56,72,64,54,92,80,58,30.19,30.07,13,3,13,0.00
2013-12-11,83,70,56,70,63,52,88,78,63,30.29,30.17,10,3,7,0.00
2013-12-12,69,58,45,57,46,26,90,67,25,30.36,30.24,12,3,12,0.00
2013-12-13,76,58,46,58,50,42,92,77,46,30.32,30.16,12,2,12,0.00
2013-12-14,82,68,52,71,62,50,91,83,67,30.16,29.95,16,3,16,0.00
2013-12-15,73,65,56,69,61,53,91,86,75,30.16,29.88,16,4,16,0.80
2013-12-16,63,51,36,53,43,34,91,78,45,30.27,30.16,7,2,7,0.00
2013-12-17,70,51,35,54,44,33,94,80,53,30.30,30.17,7,1,7,0.00
2013-12-18,69,50,36,49,42,34,93,76,46,30.33,30.23,12,1,12,0.00
2013-12-19,75,54,34,61,47,32,93,81,53,30.32,30.20,9,1,9,0.01
2013-12-20,82,62,44,65,55,41,93,79,54,30.25,30.13,10,2,10,0.00
2013-12-21,85,70,56,72,64,53,93,83,58,30.18,30.05,15,4,15,0.00
2013-12-22,85,72,62,72,66,59,93,83,64,30.17,30.08,23,3,23,0.00
2013-12-23,85,74,63,73,68,61,93,82,61,30.19,30.08,14,3,14,0.01
2013-12-24,72,61,48,69,51,36,91,73,36,30.31,30.11,13,4,13,0.14
2013-12-25,74,57,42,60,49,38,90,77,58,30.30,30.19,8,2,8,0.00
2013-12-26,76,61,55,64,56,52,92,86,65,30.27,30.13,9,3,9,0.00
2013-12-27,67,61,56,63,58,52,90,88,84,30.30,30.21,9,3,9,0.00
2013-12-28,76,68,62,71,65,59,92,90,80,30.27,30.04,14,3,14,0.09
2013-12-29,76,71,64,72,67,61,91,89,86,30.05,29.91,12,4,12,0.25
2013-12-30,70,60,52,61,54,47,92,81,49,30.24,30.01,7,2,7,0.00
2013-12-31,70,59,51,54,51,48,91,76,51,30.35,30.20,8,2,8,0.00
2014-1-1,63,59,56,60,56,52,92,89,85,30.30,30.10,9,2,9,0.11
2014-1-2,77,65,56,72,62,52,94,91,81,30.09,29.84,21,4,21,0.32